STARLINK-4290, 53006

Orbit data source: Space-Track

STARLINK-4290, 53006 is a payload satellite owned by SpaceX/Seattle (US) in LEO that was launched on Thu, 07 Jul 2022 UTC via an FALCON 9 launch vehicle from the Air Force Eastern Test Range (AFETR). Payload-class satellites include a variety of spacecraft equipped with specific instruments for various scientific and technological missions. These include communications satellites like Starlink; space stations such as the ISS; scientific satellites like the Hubble; Earth observation satellites from companies like Planet Labs, Umbra, and HawkEye 360; GPS; miniature CubeSats for education and research; and military/defense satellites.

Loading next visibility...
Identifier
53006, 2022-076W
Orbit
LEO
Last TLE update
23 hours ago
Origin
Manufacturer
SpaceX/Seattle
Mission
Operational Commercial Communications
Bus & Motor
STARLINK, Unknown motor
Mass
297 kg wet, ~275 kg dry
Launch date (UTC)
2022-07-07 (3 years ago)
Launch vehicle
FALCON 9
Launch site
Air Force Eastern Test Range (AFETR)
Object type
Payload
Rocket body
Debris
Shape & HBR
Box + 1 Pan, 8.86 m
Radar Cross Section
13.562 m², Large (>1 m²)

Expand to show TLE details & history

TLE from 23 hours ago
0 STARLINK-4290
1 53006U 22076W   25169.36942117 -.00000174  00000-0  71280-5 0  9993
2 53006  53.2154 200.6993 0001008  79.8168 280.2938 15.08838762162945
Epoch: 2025-06-18T08:51Z
TLE epoch observation values (Epoch: 2025-06-18T08:51:57.989Z)
Latitude
0.00002°
Longitude
160.85525°
Altitude
540.52 km
Speed
7.593 km/s
True Right ascension
13h 22m 47s
True Declination
0° 00' 00"
Sunlit
Object was in daylight at epoch
Visualization orbit readout
Latitude
48.54054°
Longitude
-146.05013°
Altitude
544.57 km
Speed
7.596 km/s
Apparent Right ascension
10h 54m 39s
Apparent Declination
32° 48' 28"
Sunlit
Object is in daylight
Visualization observer readout
Local Sidereal Time
18:16:15
Azimuth
307.459° NW
Elevation
7.062°
Doppler factor
1
Orbital elements
Apogee altitude
540.69 km
Perigee altitude
539.295 km
Semi-major axis
6,918.129 km
Eccentricity
0.0001
Inclination
53.2154°
RAAN
200.6993°
Arg. of periapsis
79.8168°
True anomaly
Unknown
Mean anomaly
280.2938°
Eccentric anomaly
Unknown
Mean motion
3.7719 °/min
Orbital period
95.44 mins
BSTAR
0.000007128
Loading maneuver chart data...
Loading SW <> Apogee altitude chart data...
Loading historical data...
Loading historical data...
Loading historical data...
Loading historical data...
Loading historical data...
Loading historical data...
Loading historical data...

STARLINK-4290 Visibility forecast

Observer location: undefined°, undefined°

Span
Click to sort rows by Start time (UTC) header in descending order
Start Az.
Max El. time (UTC)
Max El. Az.
Max El.
End time (UTC)
End Az.
5 mins2025-06-19 10:47:37.197Z336.099° NNW2025-06-19 10:49:37.197Z27.46° NE32.039°2025-06-19 10:52:37.197Z96.264° ESE
5 mins2025-06-19 12:26:37.197Z280.392° WNW2025-06-19 12:28:37.197Z240.077° WSW26.536°2025-06-19 12:31:37.197Z174.729° S
6 mins2025-06-20 03:57:37.197Z202.606° SW2025-06-20 04:00:37.197Z117.897° SE36.17°2025-06-20 04:03:37.197Z62.447° ENE
5 mins2025-06-20 05:37:37.197Z284.42° WNW2025-06-20 05:39:37.197Z327.26° NNW25.6°2025-06-20 05:42:37.197Z27.241° NE
|